DW3201 Weather Reports


Display with metric or nautical units.
time (UTC)temp
F
wind
direction
speed
MPH
gust
MPH
rain 1hr
in
rain 24hr
in
rain mn
in
humidity
%
barometer
mb
20260503021557 50 243 3.0 5.0 0.00 0.01 0.01 50 1013.9
20260503020056 51 237 2.0 6.0 0.00 0.01 0.01 47 1013.7
20260503014552 51 232 2.0 4.0 0.00 0.01 0.01 47 1013.6
20260503013049 52 228 3.0 4.0 0.00 0.01 0.01 45 1013.5
20260503011601 52 248 2.0 4.0 0.00 0.01 0.01 44 1013.5
20260503010107 53 238 2.0 3.0 0.00 0.01 0.01 41 1013.5
20260503004552 54 248 2.0 4.0 0.00 0.01 0.01 40 1013.6
20260503003106 55 235 2.0 4.0 0.00 0.01 0.01 39 1013.5
20260503001550 55 259 3.0 6.0 0.00 0.01 0.01 37 1013.6
20260503000055 56 256 3.0 9.0 0.00 0.01 0.01 36 1013.8
20260502234555 56 274 4.0 8.0 0.00 0.01 0.01 35 1013.9
20260502233051 56 284 6.0 12.0 0.00 0.01 0.01 34 1014.0
20260502231556 56 259 3.0 9.0 0.00 0.01 0.01 35 1014.2
20260502230051 56 274 3.0 9.0 0.00 0.01 0.01 35 1014.3
20260502224556 57 285 2.0 10.0 0.00 0.01 0.01 34 1014.4
20260502223049 56 277 5.0 11.0 0.00 0.01 0.01 33 1014.5
20260502221552 56 342 5.0 11.0 0.00 0.01 0.01 32 1014.6
20260502220133 56 336 5.0 13.0 0.00 0.01 0.01 33 1014.7
20260502214557 56 288 7.0 16.0 0.00 0.01 0.01 32 1014.7
20260502213103 56 249 6.0 13.0 0.00 0.01 0.01 33 1014.8
20260502211559 56 283 5.0 9.0 0.00 0.01 0.01 35 1014.9
20260502204559 55 236 6.0 13.0 0.00 0.01 0.01 33 1015.3
20260502203112 56 277 1.0 5.0 0.00 0.01 0.01 35 1015.4
20260502201554 56 218 6.0 10.0 0.00 0.01 0.01 32 1015.5
20260502200055 55 295 5.0 14.0 0.00 0.01 0.01 35 1015.9
20260502194556 54 273 2.0 7.0 0.00 0.01 0.01 35 1016.1
20260502193054 55 276 3.0 10.0 0.00 0.01 0.01 34 1016.2
20260502191616 55 101 4.0 10.0 0.00 0.01 0.01 34 1016.4
20260502190106 55 256 1.0 6.0 0.00 0.01 0.01 34 1016.6
20260502184554 55 117 1.0 8.0 0.00 0.01 0.01 36 1016.8
20260502183059 55 257 4.0 10.0 0.00 0.01 0.01 36 1017.1
20260502181557 54 211 3.0 13.0 0.00 0.01 0.01 36 1017.1
20260502163107 52 301 3.0 6.0 0.00 0.01 0.01 40 1018.1
20260502161558 52 245 1.0 7.0 0.00 0.01 0.01 43 1018.2
20260502160104 51 305 1.0 9.0 0.00 0.01 0.01 42 1018.3
20260502151555 48 293 3.0 9.0 0.00 0.01 0.01 54 1018.5
20260502130105 39 271 1.0 3.0 0.00 0.00 0.00 86 1019.0
20260502123104 36 269 0.0 2.0 0.00 0.00 0.00 88 1018.9
20260502121558 34 0 0.0 1.0 0.00 0.00 0.00 90 1018.9
20260502114557 32 274 1.0 2.0 0.00 0.00 0.00 92 1018.5
20260502113057 31 263 0.0 1.0 0.00 0.00 0.00 93 1018.6
20260502111555 30 0 0.0 1.0 0.00 0.00 0.00 94 1018.5
20260502110055 28 0 0.0 0.0 0.00 0.00 0.00 94 1018.5
20260502104555 28 0 0.0 0.0 0.00 0.00 0.00 94 1018.5
20260502103051 28 0 0.0 0.0 0.00 0.00 0.00 94 1018.4
20260502101554 28 0 0.0 0.0 0.00 0.00 0.00 94 1018.4
20260502070100 31 0 0.0 0.0 0.00 0.00 0.00 94 1018.3
20260502064556 31 0 0.0 0.0 0.00 0.00 0.00 94 1018.3
20260502063057 31 0 0.0 0.0 0.00 0.00 0.00 93 1018.4
20260502061554 31 0 0.0 0.0 0.00 0.00 0.00 94 1018.5
20260502060100 31 0 0.0 1.0 0.00 0.00 0.00 93 1018.6
20260502054557 31 0 0.0 1.0 0.00 0.00 0.00 93 1018.4
20260502053053 31 281 1.0 1.0 0.00 0.00 0.00 93 1018.4
20260502051601 31 0 0.0 1.0 0.00 0.00 0.00 93 1018.5
20260502050055 32 0 0.0 0.0 0.00 0.00 0.00 93 1018.6
20260502044555 31 0 0.0 0.0 0.00 0.01 0.00 92 1018.6
20260502043059 32 271 0.0 1.0 0.00 0.01 0.00 92 1018.6
20260502041555 32 0 0.0 1.0 0.00 0.01 0.00 92 1018.4
20260502040057 32 271 0.0 1.0 0.00 0.01 0.00 90 1018.4
20260502034555 33 0 0.0 1.0 0.00 0.02 0.00 90 1018.5
20260502033052 33 0 0.0 0.0 0.00 0.02 0.00 89 1018.4
20260502031552 34 0 0.0 0.0 0.00 0.02 0.00 87 1018.3
20260502030054 35 0 0.0 1.0 0.00 0.02 0.00 86 1018.2
20260502024549 37 0 0.0 1.0 0.00 0.02 0.00 76 1018.2
20260502023052 38 0 0.0 2.0 0.00 0.02 0.00 76 1018.2